EW6790 Weather Reports


time (UTC)temp
F
wind
direction
speed
knots
gust
knots
rain 1hr
in
rain 24hr
in
rain mn
in
humidity
%
barometer
mb
20260505041600 44 325 0.0 0.0 0.00 0.00 0.00 52 1006.8
20260505040035 45 325 0.0 2.6 0.00 0.00 0.00 50 1006.8
20260505034532 46 327 1.7 6.1 0.00 0.00 0.00 49 1006.8
20260505033011 47 325 2.6 6.1 0.00 0.00 0.00 48 1006.9
20260505031524 47 354 3.5 7.8 0.00 0.00 0.00 47 1006.8
20260505030046 48 10 3.5 9.6 0.00 0.00 0.00 46 1006.6
20260505024543 49 13 5.2 13.0 0.00 0.00 0.00 45 1006.5
20260505023025 49 324 6.1 14.8 0.00 0.00 0.00 45 1006.1
20260505021522 50 325 7.0 12.2 0.00 0.00 0.00 44 1005.8
20260505020058 51 316 6.1 13.9 0.00 0.00 0.00 42 1005.5
20260505014601 51 326 8.7 13.9 0.00 0.00 0.00 42 1005.0
20260505013033 52 319 6.1 13.9 0.00 0.00 0.00 42 1004.7
20260505011534 52 335 6.1 14.8 0.00 0.00 0.00 42 1004.4
20260505010007 53 290 6.1 13.9 0.00 0.00 0.00 42 1004.1
20260505004508 54 325 4.3 10.4 0.00 0.00 0.00 42 1003.8
20260505003045 54 302 4.3 13.0 0.00 0.00 0.00 42 1003.6
20260505001543 54 330 6.1 13.9 0.00 0.00 0.00 42 1003.5
20260505000036 55 325 7.8 19.1 0.00 0.00 0.00 41 1003.2
20260504234519 56 306 7.0 20.9 0.00 0.00 0.00 42 1003.2
20260504233100 57 322 8.7 16.5 0.00 0.00 0.00 41 1002.7
20260504231553 58 315 6.1 15.6 0.00 0.00 0.00 40 1002.5
20260504230055 59 312 7.8 19.1 0.00 0.00 0.00 39 1002.4
20260504224536 61 300 6.1 20.0 0.00 0.00 0.00 36 1002.4
20260504223034 61 337 5.2 14.8 0.00 0.00 0.00 36 1002.0
20260504221542 61 344 6.1 14.8 0.00 0.00 0.00 36 1001.7
20260504220029 61 288 6.1 19.1 0.00 0.00 0.00 34 1001.5
20260504214526 63 268 5.2 17.4 0.00 0.00 0.00 34 1001.4
20260504213027 63 351 4.3 19.1 0.00 0.00 0.00 33 1001.1
20260504211524 63 328 6.1 13.9 0.00 0.00 0.00 34 1001.0
20260504210005 62 337 9.6 20.0 0.00 0.00 0.00 33 1001.1
20260504204504 63 285 9.6 20.0 0.00 0.00 0.00 34 1001.1
20260504203049 63 318 7.8 17.4 0.00 0.00 0.00 31 1000.8
20260504201543 64 341 7.8 16.5 0.00 0.00 0.00 29 1001.0
20260504200021 64 307 7.0 15.6 0.00 0.00 0.00 29 1001.0
20260504194518 65 290 7.0 15.6 0.00 0.00 0.00 27 1000.9
20260504193117 65 295 7.0 14.8 0.00 0.00 0.00 28 1000.7
20260504191607 64 300 4.3 11.3 0.00 0.00 0.00 36 1000.6
20260504190116 65 308 6.1 28.7 0.00 0.00 0.00 29 1000.3
20260504184533 67 309 5.2 13.9 0.00 0.00 0.00 33 1000.2
20260504183032 66 293 6.1 20.9 0.00 0.00 0.00 36 1000.0
20260504181513 67 296 5.2 12.2 0.00 0.00 0.00 34 999.9
20260504180011 67 288 4.3 16.5 0.00 0.00 0.00 34 999.5
20260504174552 67 300 6.1 13.9 0.00 0.00 0.00 34 999.4
20260504173049 66 297 4.3 17.4 0.00 0.00 0.00 34 999.4
20260504171535 65 310 7.0 13.9 0.00 0.00 0.00 37 999.3
20260504081556 51 224 7.8 11.3 0.00 0.00 0.00 57 999.4
20260504044528 55 217 5.2 7.0 0.00 0.00 0.00 46 1002.6
20260504043023 55 217 5.2 7.8 0.00 0.00 0.00 47 1002.8